Location: Lango�lan
(48.1202°N, 3.2340°W)
Time: 21:36:45
(UTC+00:00)

CENTAUR R/B - Pass Details

Date: 23 October 2019
Orbit: 781 x 1407 km, 63.4° (Epoch: 10 November)

Event Time Altitude Azimuth Distance (km) Brightness Sun altitude
Exits shadow 03:11:18 82° 39° (NE) 1,355 3.1 -35.4°
Maximum altitude 03:11:23 82° 48° (NE) 1,355 3.1 -35.4°
Drops below altitude 10° 03:20:04 10° 137° (SE) 3,481 5.5 -34.1°
Sets 03:23:02 0° 138° (SE) 4,464 6.2 -33.6°
